Back to catalog

STARLINK-31632

AliveCommunicationsVLEO
NORAD 59326·PAYLOAD·🇺🇸 United States

Launched Mar 25, 2024 from Cape Canaveral Space Force Station

Loading…

Next Passes (next 24 hours)

TLE

FreshSource: CelesTrak SupGP

Epoch: Sep 14, 2026, 14:25 UTC

1 59326C 24057G   26257.60118056 -.00027255  00000+0 -98733-3 0  2574
2 59326  43.0001 211.4498 0001468 264.3819 346.4674 15.27586430    12

Track STARLINK-31632 in real time with AllMySat

Download on the App Store